Location: Heraklion
(35.3387°N, 25.1442°E)
Time: 10:34:48
(UTC+02:00)

STARLINK-5229 - Pass Details

Date: 07 December 2022
Orbit: 539 x 540 km, 53.2° (Epoch: 06 February)

Event Time Altitude Azimuth Distance (km) Brightness Sun altitude
Rises 18:23:03 0° 251° (WSW) 2,651 ? -15.2°
Maximum altitude 18:28:58 28° 324° (NW) 998 ? -16.4°
Enters shadow 18:31:23 16° 15° (NNE) 1,415 ? -16.8°
